• In Netherlands
  • List of Countries
  • For 7 days
  • Water Temperature
  • Satellite Maps
  • Weather Map
  • Weather Widgets
  • user-avatar
    Login

    Hourly Weather Elbasan

    Today, 25 September, Monday

    Time Temperature Precipitation Wind Pressure Humidity
    00:00 +18°C° 0.3 mm 1 mps 736 mmHg 81%
    01:00 +18°C° 0 mm 1 mps 736 mmHg 78%
    02:00 +18°C° 0.2 mm 1 mps 736 mmHg 79%
    03:00 +18°C° 0.2 mm 1 mps 736 mmHg 80%
    04:00 +18°C° 0.2 mm 1 mps 736 mmHg 80%
    05:00 +17°C° 0.2 mm 2 mps 735 mmHg 79%
    06:00 +17°C° 0.2 mm 2 mps 735 mmHg 79%
    07:00 +18°C° 0 mm 3 mps 735 mmHg 76%
    08:00 +18°C° 0.3 mm 3 mps 735 mmHg 73%
    09:00 +18°C° 0.3 mm 3 mps 735 mmHg 70%
    10:00 +19°C° 0.3 mm 3 mps 736 mmHg 66%
    11:00 +19°C° 0.4 mm 3 mps 736 mmHg 64%
    12:00 +19°C° 0.4 mm 3 mps 736 mmHg 62%
    13:00 +20°C° 0.4 mm 3 mps 736 mmHg 60%
    14:00 +19°C° 0.3 mm 3 mps 736 mmHg 62%
    15:00 +19°C° 0.3 mm 3 mps 735 mmHg 63%
    16:00 +19°C° 0.3 mm 2 mps 735 mmHg 65%
    17:00 +18°C° 0.3 mm 2 mps 735 mmHg 69%
    18:00 +17°C° 0.3 mm 2 mps 736 mmHg 74%
    19:00 +16°C° 0.3 mm 2 mps 736 mmHg 78%
    20:00 +15°C° 0.1 mm 2 mps 736 mmHg 79%
    21:00 +15°C° 0.1 mm 2 mps 736 mmHg 80%
    22:00 +15°C° 0.1 mm 2 mps 736 mmHg 81%
    23:00 +15°C° 0 mm 2 mps 736 mmHg 81%

    Tomorrow, 26 September, Tuesday

    Time Temperature Precipitation Wind Pressure Humidity
    00:00 +14°C° 0 mm 2 mps 736 mmHg 81%
    01:00 +14°C° 0 mm 2 mps 736 mmHg 81%
    02:00 +14°C° 0 mm 2 mps 736 mmHg 82%
    03:00 +14°C° 0 mm 2 mps 735 mmHg 82%
    04:00 +14°C° 0 mm 2 mps 735 mmHg 83%
    05:00 +14°C° 0 mm 2 mps 736 mmHg 80%
    06:00 +15°C° 0 mm 1 mps 736 mmHg 77%
    07:00 +16°C° 0 mm 1 mps 736 mmHg 74%
    08:00 +19°C° 0 mm 1 mps 736 mmHg 67%
    09:00 +21°C° 0 mm 1 mps 736 mmHg 60%
    10:00 +23°C° 0 mm 1 mps 737 mmHg 52%
    11:00 +24°C° 0.2 mm 1 mps 737 mmHg 51%
    12:00 +24°C° 0.2 mm 2 mps 736 mmHg 50%
    13:00 +24°C° 0.2 mm 2 mps 736 mmHg 49%
    14:00 +24°C° 0.4 mm 2 mps 736 mmHg 51%
    15:00 +23°C° 0.4 mm 2 mps 736 mmHg 53%
    16:00 +23°C° 0.4 mm 2 mps 736 mmHg 56%
    17:00 +20°C° 0.1 mm 2 mps 737 mmHg 63%
    18:00 +19°C° 0.1 mm 2 mps 737 mmHg 70%
    19:00 +18°C° 0.1 mm 1 mps 737 mmHg 77%
    20:00 +18°C° 0 mm 1 mps 737 mmHg 78%
    21:00 +16°C° 0 mm 1 mps 737 mmHg 79%
    22:00 +16°C° 0 mm 1 mps 738 mmHg 80%
    23:00 +16°C° 0 mm 1 mps 738 mmHg 81%

    Day after tomorrow, 27 September, Wednesday

    Time Temperature Precipitation Wind Pressure Humidity
    00:00 +15°C° 0 mm 1 mps 738 mmHg 81%
    01:00 +15°C° 0 mm 1 mps 738 mmHg 81%
    02:00 +15°C° 0 mm 1 mps 738 mmHg 81%
    03:00 +15°C° 0 mm 1 mps 737 mmHg 81%
    04:00 +15°C° 0 mm 1 mps 737 mmHg 81%
    05:00 +15°C° 0 mm 1 mps 738 mmHg 79%
    06:00 +16°C° 0 mm 1 mps 738 mmHg 76%
    07:00 +18°C° 0 mm 1 mps 738 mmHg 73%
    08:00 +20°C° 0 mm 1 mps 738 mmHg 66%
    09:00 +22°C° 0 mm 1 mps 739 mmHg 59%
    10:00 +24°C° 0 mm 1 mps 739 mmHg 52%
    11:00 +24°C° 0.2 mm 1 mps 739 mmHg 50%
    12:00 +25°C° 0.2 mm 2 mps 739 mmHg 48%
    13:00 +25°C° 0.2 mm 2 mps 739 mmHg 47%
    14:00 +24°C° 0.4 mm 2 mps 738 mmHg 50%
    15:00 +24°C° 0.4 mm 2 mps 738 mmHg 54%
    16:00 +23°C° 0.4 mm 2 mps 738 mmHg 57%
    17:00 +21°C° 0.3 mm 2 mps 738 mmHg 64%
    18:00 +20°C° 0.3 mm 1 mps 739 mmHg 71%
    19:00 +19°C° 0.3 mm 1 mps 739 mmHg 78%
    20:00 +18°C° 0.2 mm 1 mps 739 mmHg 78%
    21:00 +18°C° 0.2 mm 1 mps 739 mmHg 79%
    22:00 +18°C° 0.2 mm 1 mps 739 mmHg 80%
    23:00 +18°C° 0.2 mm 1 mps 739 mmHg 80%

    28 September, Thursday

    Time Temperature Precipitation Wind Pressure Humidity
    00:00 +18°C° 0.2 mm 1 mps 739 mmHg 81%
    01:00 +18°C° 0.2 mm 1 mps 739 mmHg 81%
    02:00 +16°C° 0.2 mm 1 mps 739 mmHg 82%
    03:00 +16°C° 0.2 mm 1 mps 739 mmHg 82%
    04:00 +16°C° 0.2 mm 1 mps 739 mmHg 82%
    05:00 +17°C° 0.1 mm 2 mps 739 mmHg 81%
    06:00 +17°C° 0.1 mm 2 mps 739 mmHg 79%
    07:00 +18°C° 0.1 mm 2 mps 739 mmHg 77%
    08:00 +19°C° 0.1 mm 2 mps 739 mmHg 71%
    09:00 +20°C° 0.1 mm 2 mps 739 mmHg 64%
    10:00 +23°C° 0.1 mm 2 mps 739 mmHg 58%
    11:00 +23°C° 0.4 mm 2 mps 739 mmHg 57%
    12:00 +23°C° 0.4 mm 2 mps 739 mmHg 56%
    13:00 +24°C° 0.4 mm 2 mps 739 mmHg 54%
    14:00 +23°C° 0.6 mm 2 mps 739 mmHg 57%
    15:00 +23°C° 0.6 mm 2 mps 739 mmHg 59%
    16:00 +21°C° 0.6 mm 2 mps 738 mmHg 61%
    17:00 +20°C° 0.3 mm 2 mps 739 mmHg 67%
    18:00 +19°C° 0.3 mm 2 mps 739 mmHg 73%
    19:00 +17°C° 0.3 mm 2 mps 739 mmHg 78%
    20:00 +17°C° 0 mm 2 mps 739 mmHg 79%
    21:00 +16°C° 0 mm 2 mps 739 mmHg 81%
    22:00 +16°C° 0 mm 2 mps 739 mmHg 82%
    23:00 +16°C° 0 mm 2 mps 739 mmHg 83%

    29 September, Friday

    Time Temperature Precipitation Wind Pressure Humidity
    00:00 +15°C° 0 mm 2 mps 739 mmHg 83%
    01:00 +15°C° 0 mm 2 mps 738 mmHg 84%
    02:00 +15°C° 0 mm 2 mps 738 mmHg 84%
    03:00 +15°C° 0 mm 2 mps 738 mmHg 84%
    04:00 +15°C° 0 mm 2 mps 738 mmHg 84%
    05:00 +15°C° 0 mm 2 mps 738 mmHg 82%
    06:00 +16°C° 0 mm 2 mps 738 mmHg 79%
    07:00 +17°C° 0 mm 2 mps 738 mmHg 76%
    08:00 +18°C° 0 mm 2 mps 738 mmHg 70%
    09:00 +19°C° 0 mm 2 mps 738 mmHg 63%
    10:00 +21°C° 0 mm 2 mps 738 mmHg 56%
    11:00 +21°C° 0.2 mm 2 mps 738 mmHg 56%
    12:00 +21°C° 0.2 mm 2 mps 738 mmHg 55%
    13:00 +23°C° 0.2 mm 2 mps 737 mmHg 55%
    14:00 +21°C° 0.8 mm 2 mps 737 mmHg 60%
    15:00 +20°C° 0.8 mm 2 mps 737 mmHg 66%
    16:00 +20°C° 0.8 mm 1 mps 737 mmHg 71%
    17:00 +19°C° 0.9 mm 1 mps 737 mmHg 75%
    18:00 +18°C° 0.9 mm 1 mps 737 mmHg 79%
    19:00 +18°C° 0.9 mm 1 mps 737 mmHg 83%
    20:00 +16°C° 0.2 mm 1 mps 737 mmHg 83%
    21:00 +16°C° 0.2 mm 2 mps 737 mmHg 83%
    22:00 +15°C° 0.2 mm 2 mps 737 mmHg 84%
    23:00 +15°C° 0.1 mm 2 mps 737 mmHg 84%

    30 September, Saturday

    Time Temperature Precipitation Wind Pressure Humidity
    00:00 +15°C° 0.1 mm 2 mps 737 mmHg 84%
    01:00 +14°C° 0.1 mm 2 mps 737 mmHg 84%
    02:00 +14°C° 0 mm 2 mps 737 mmHg 84%
    03:00 +14°C° 0 mm 2 mps 737 mmHg 83%
    04:00 +14°C° 0 mm 2 mps 737 mmHg 83%
    05:00 +14°C° 0 mm 2 mps 737 mmHg 81%
    06:00 +15°C° 0 mm 2 mps 737 mmHg 79%
    07:00 +15°C° 0 mm 2 mps 736 mmHg 76%
    08:00 +17°C° 0 mm 2 mps 736 mmHg 69%
    09:00 +20°C° 0 mm 1 mps 736 mmHg 62%
    10:00 +21°C° 0 mm 1 mps 736 mmHg 56%
    11:00 +21°C° 0 mm 1 mps 736 mmHg 55%
    12:00 +22°C° 0 mm 1 mps 736 mmHg 55%
    13:00 +21°C° 0 mm 2 mps 735 mmHg 54%
    14:00 +20°C° 0.1 mm 2 mps 735 mmHg 56%
    15:00 +20°C° 0.1 mm 2 mps 735 mmHg 58%
    16:00 +20°C° 0.1 mm 2 mps 735 mmHg 60%
    17:00 +20°C° 0.1 mm 1 mps 735 mmHg 66%
    18:00 +18°C° 0.1 mm 1 mps 735 mmHg 71%
    19:00 +15°C° 0.1 mm 0 mps 735 mmHg 77%
    20:00 +16°C° 0.1 mm 1 mps 735 mmHg 78%
    21:00 +15°C° 0.1 mm 1 mps 735 mmHg 79%
    22:00 +15°C° 0.1 mm 1 mps 736 mmHg 81%
    23:00 +15°C° 0.1 mm 1 mps 735 mmHg 81%
    Show more